Midland City, AL

11:42 AM CST on February 27, 2017 (GMT -0600)
Fort Rucker / Ozark

Weather History for KHEY - April, 2014

Change the Weather History Date:

Monday, April 7, 2014

  Actual Average (KOZR) Record (KOZR)
Temperature  
Mean Temperature 66 °F -  
Max Temperature 73 °F 73 °F 87 °F (2015)
Min Temperature 57 °F 51 °F 36 °F (2009)
Cooling Degree Days 2    
Growing Degree Days 16 (Base 50)    
Moisture  
Dew Point 65 °F    
Average Humidity 90    
Maximum Humidity 100    
Minimum Humidity 72    
Precipitation  
Precipitation 1.58 in - - ()
Sea Level Pressure  
Sea Level Pressure 29.61 in    
Wind  
Wind Speed 8 mph (SSW)    
Max Wind Speed 15 mph    
Max Gust Speed 23 mph    
Visibility 7 miles    
Events Rain , Thunderstorm    
Averages and records for this station are not official NWS values.
T = Trace of Precipitation, MM = Missing Value Source: NWS Daily Summary

Daily Weather History Graph

Daily Weather History Graph

Search for Another Location

Airport or City:

Trip Planner

Search our weather history database for the weather conditions in past years. The results will help you decide how hot, cold, wet, or windy it might be!

Date:

Astronomy

Apr. 07, 2014 Rise Set
Actual Time 6:23 AM CDT 7:05 PM CDT
Civil Twilight 5:59 AM CDT 7:30 PM CDT
Nautical Twilight 5:30 AM CDT 7:59 PM CDT
Astronomical Twilight 5:00 AM CDT 8:29 PM CDT
Moon 12:28 PM CDT (4/7) 1:32 AM CDT (4/7)
Length of Visible Light 13h 31m
Length of Day
12h 42m
First Quarter, 53% of the Moon is Illuminated
Apr 7
First Quarter
Apr 15
Full
Apr 22
Last Quarter
Apr 29
New
May 6
First Quarter

Hourly Weather History & Observations

Time (CDT) Temp. Dew Point Humidity Pressure Visibility Wind Dir Wind Speed Gust Speed Precip Events Conditions
12:53 AM 68.0 °F 66.0 °F 93% 29.48 in 9.0 mi South 12.7 mph 17.3 mph N/A   Overcast
1:53 AM 68.0 °F 66.0 °F 93% 29.46 in 10.0 mi South 10.4 mph 20.7 mph N/A   Overcast
2:53 AM 68.0 °F 64.9 °F 90% 29.46 in 10.0 mi South 9.2 mph - N/A   Overcast
3:53 AM 68.0 °F 66.0 °F 93% 29.46 in 10.0 mi SSE 10.4 mph - N/A   Overcast
4:53 AM 68.0 °F 66.0 °F 93% 29.40 in 8.0 mi SSE 9.2 mph - 0.00 in   Overcast
5:09 AM 68.0 °F 64.9 °F 90% 29.72 in 9.0 mi SSE 9.2 mph 20.7 mph 0.01 in   Overcast
5:31 AM 68.0 °F 64.9 °F 90% 29.74 in 10.0 mi Variable 6.9 mph - 0.01 in   Overcast
5:53 AM 69.1 °F 66.0 °F 90% 29.42 in 10.0 mi South 9.2 mph - 0.01 in   Overcast
6:53 AM 69.1 °F 66.0 °F 90% 29.42 in 10.0 mi SSE 6.9 mph - N/A   Overcast
7:14 AM 69.1 °F 66.0 °F 90% 29.75 in 10.0 mi SSE 4.6 mph - N/A   Overcast
7:53 AM 68.0 °F 66.0 °F 93% 29.41 in 5.0 mi South 5.8 mph - 0.01 in Rain Light Rain
8:32 AM 66.9 °F 66.0 °F 97% 29.74 in 2.5 mi SSE 6.9 mph - 0.14 in Rain , Thunderstorm Heavy Thunderstorms and Rain
8:53 AM 66.9 °F 64.9 °F 93% 29.41 in 6.0 mi SSE 5.8 mph - 0.15 in Rain , Thunderstorm Light Thunderstorms and Rain
9:22 AM 66.9 °F 64.9 °F 93% 29.76 in 4.0 mi NNW 8.1 mph - 0.05 in Rain , Thunderstorm Thunderstorms and Rain
9:35 AM 66.9 °F 66.0 °F 97% 29.78 in 2.0 mi NW 8.1 mph - 0.17 in Rain , Thunderstorm Heavy Thunderstorms and Rain
9:48 AM 66.2 °F 64.4 °F 94% 29.78 in 3.0 mi WNW 13.8 mph 21.9 mph 0.28 in Rain , Thunderstorm Heavy Thunderstorms and Rain
9:53 AM 66.0 °F 64.0 °F 93% 29.47 in 2.0 mi West 9.2 mph 21.9 mph 0.37 in Rain , Thunderstorm Heavy Thunderstorms and Rain
9:57 AM 66.0 °F 64.0 °F 93% 29.80 in 1.2 mi WSW 10.4 mph 20.7 mph 0.15 in Rain , Thunderstorm Heavy Thunderstorms and Rain
9:59 AM 66.0 °F 64.0 °F 93% 29.79 in 0.8 mi West 9.2 mph 20.7 mph 0.24 in Rain , Thunderstorm Heavy Thunderstorms and Rain
10:08 AM 66.0 °F 64.0 °F 93% 29.80 in 1.0 mi SW 11.5 mph 18.4 mph 0.40 in Rain , Thunderstorm Heavy Thunderstorms and Rain
10:23 AM 64.9 °F 64.0 °F 97% 29.78 in 0.8 mi SW 6.9 mph 16.1 mph 0.67 in Rain , Thunderstorm Thunderstorms and Rain
10:28 AM 64.9 °F 64.0 °F 97% 29.79 in 2.0 mi SW 5.8 mph - 0.68 in Rain , Thunderstorm Light Thunderstorms and Rain
10:33 AM 64.9 °F 64.0 °F 97% 29.80 in 4.0 mi SSW 6.9 mph - 0.69 in Rain , Thunderstorm Thunderstorms and Rain
10:50 AM 64.4 °F 64.4 °F 100% 29.79 in 2.5 mi Variable 5.8 mph - 0.73 in Rain , Thunderstorm Thunderstorms and Rain
10:53 AM 64.9 °F 64.0 °F 97% 29.46 in 3.0 mi SW 8.1 mph - 0.73 in Rain , Thunderstorm Thunderstorms and Rain
11:03 AM 66.0 °F 64.0 °F 93% 29.78 in 2.5 mi SSW 6.9 mph - 0.03 in Rain , Thunderstorm Thunderstorms and Rain
11:13 AM 66.0 °F 64.0 °F 93% 29.78 in 3.0 mi SSW 5.8 mph - 0.05 in Rain , Thunderstorm Light Thunderstorms and Rain
11:35 AM 64.9 °F 64.0 °F 97% 29.77 in 2.0 mi South 3.5 mph - 0.11 in Rain , Thunderstorm Heavy Thunderstorms and Rain
11:53 AM 64.9 °F 64.0 °F 97% 29.44 in 2.5 mi South 5.8 mph - 0.17 in Rain , Thunderstorm Thunderstorms and Rain
12:30 PM 66.0 °F 64.9 °F 96% 29.74 in 3.0 mi SSE 6.9 mph - 0.12 in Rain Light Rain
12:53 PM 66.0 °F 64.9 °F 96% 29.41 in 10.0 mi SSE 8.1 mph - 0.14 in Rain Light Rain
1:07 PM 66.9 °F 66.0 °F 97% 29.71 in 10.0 mi SSE 10.4 mph 19.6 mph 0.00 in Rain Light Rain
1:34 PM 69.1 °F 66.0 °F 90% 29.70 in 10.0 mi SSE 8.1 mph 16.1 mph 0.00 in   Mostly Cloudy
1:45 PM 69.1 °F 66.0 °F 90% 29.70 in 10.0 mi South 6.9 mph - 0.00 in   Mostly Cloudy
1:53 PM 70.0 °F 66.0 °F 87% 29.37 in 10.0 mi SSW 6.9 mph 17.3 mph 0.00 in   Overcast
2:36 PM 71.1 °F 66.9 °F 87% 29.69 in 10.0 mi SSW 8.1 mph - N/A   Mostly Cloudy
2:53 PM 71.1 °F 66.9 °F 87% 29.36 in 10.0 mi SW 6.9 mph - N/A   Overcast
3:18 PM 72.0 °F 66.9 °F 84% 29.68 in 10.0 mi SW 6.9 mph - N/A   Scattered Clouds
3:33 PM 72.0 °F 66.9 °F 84% 29.67 in 10.0 mi SSW 5.8 mph - N/A   Mostly Cloudy
3:49 PM 73.4 °F 66.2 °F 78% 29.67 in 10.0 mi SW 3.5 mph - N/A   Mostly Cloudy
3:53 PM 73.0 °F 68.0 °F 84% 29.34 in 10.0 mi SW 3.5 mph - N/A   Overcast
4:33 PM 73.0 °F 66.9 °F 81% 29.68 in 10.0 mi SSW 6.9 mph - N/A   Scattered Clouds
4:53 PM 73.0 °F 68.0 °F 84% 29.35 in 10.0 mi South 4.6 mph - N/A   Mostly Cloudy
5:53 PM 72.0 °F 68.0 °F 87% 29.37 in 10.0 mi South 4.6 mph - N/A   Scattered Clouds
6:10 PM 72.0 °F 66.9 °F 84% 29.70 in 10.0 mi South 5.8 mph - N/A   Mostly Cloudy
6:44 PM 70.0 °F 66.9 °F 90% 29.70 in 10.0 mi South 5.8 mph - N/A   Scattered Clouds
6:53 PM 70.0 °F 66.9 °F 90% 29.38 in 10.0 mi SSW 4.6 mph - N/A   Scattered Clouds
7:00 PM 70.0 °F 66.9 °F 90% 29.71 in 10.0 mi SSW 4.6 mph - N/A   Mostly Cloudy
7:07 PM 69.1 °F 66.0 °F 90% 29.71 in 10.0 mi SSW 4.6 mph - N/A   Scattered Clouds
7:11 PM 69.1 °F 66.0 °F 90% 29.71 in 10.0 mi SSW 4.6 mph - N/A   Mostly Cloudy
7:30 PM 69.1 °F 66.0 °F 90% 29.71 in 10.0 mi Variable 4.6 mph - N/A   Mostly Cloudy
7:53 PM 68.0 °F 66.0 °F 93% 29.39 in 10.0 mi Variable 4.6 mph - N/A   Mostly Cloudy
8:53 PM 68.0 °F 66.0 °F 93% 29.43 in 10.0 mi SSW 9.2 mph - N/A   Overcast
9:25 PM 68.0 °F 66.0 °F 93% 29.78 in 8.0 mi Variable 3.5 mph - N/A   Mostly Cloudy
9:53 PM 66.9 °F 61.0 °F 81% 29.45 in 10.0 mi NNW 12.7 mph 21.9 mph N/A   Scattered Clouds
10:53 PM 61.0 °F 54.0 °F 78% 29.47 in 10.0 mi NNW 13.8 mph 20.7 mph N/A   Mostly Cloudy
11:06 PM 60.1 °F 51.1 °F 72% 29.81 in 10.0 mi NNW 15.0 mph 23.0 mph N/A   Partly Cloudy
11:53 PM 57.9 °F 50.0 °F 75% 29.49 in 10.0 mi Variable 6.9 mph - N/A   Clear